CW2001 Weather Reports


time (UTC)temp
C
wind
direction
speed
KPH
gust
KPH
rain 1hr
cm
rain 24hr
cm
rain mn
cm
humidity
%
barometer
mb
20211017163120 15 207 3.2 4.8 0.00 0.00 0.00 52 1023.2
20211017162620 15 195 1.6 8.0 0.00 0.00 0.00 54 1023.2
20211017162119 15 178 1.6 4.8 0.00 0.00 0.00 56 1023.2
20211017161620 14 173 1.6 4.8 0.00 0.00 0.00 57 1023.3
20211017161119 14 157 1.6 4.8 0.00 0.00 0.00 57 1023.3
20211017160620 13 204 3.2 8.0 0.00 0.00 0.00 59 1023.3
20211017160120 13 209 1.6 4.8 0.00 0.00 0.00 61 1023.3
20211017155619 13 202 1.6 4.8 0.00 0.00 0.00 62 1023.3
20211017155120 13 204 1.6 8.0 0.00 0.00 0.00 62 1023.3
20211017154619 12 258 1.6 4.8 0.00 0.00 0.00 63 1023.3
20211017154120 12 237 3.2 4.8 0.00 0.00 0.00 63 1023.3
20211017153619 12 165 0.0 3.2 0.00 0.00 0.00 66 1023.3
20211017153119 12 144 3.2 4.8 0.00 0.00 0.00 65 1023.3
20211017152620 11 203 1.6 4.8 0.00 0.00 0.00 66 1023.3
20211017152119 11 200 1.6 4.8 0.00 0.00 0.00 64 1023.3
20211017151620 11 211 3.2 4.8 0.00 0.00 0.00 65 1023.2
20211017151119 11 192 1.6 4.8 0.00 0.00 0.00 66 1023.3
20211017150620 11 202 1.6 4.8 0.00 0.00 0.00 66 1023.3
20211017150120 10 205 4.8 3.2 0.00 0.00 0.00 64 1023.0
20211017145620 9 231 4.8 3.2 0.00 0.00 0.00 58 1021.4
20211017145119 9 231 4.8 3.2 0.00 0.00 0.00 58 1021.4
20211017144620 9 231 4.8 3.2 0.00 0.00 0.00 58 1021.4
20211017144120 9 231 4.8 3.2 0.00 0.00 0.00 58 1021.4
20211017143619 9 231 4.8 3.2 0.00 0.00 0.00 58 1021.4
20211017143120 9 231 4.8 3.2 0.00 0.00 0.00 58 1021.4
20211017142619 9 231 4.8 3.2 0.00 0.00 0.00 58 1021.4
20211017142119 9 231 4.8 3.2 0.00 0.00 0.00 58 1021.4
20211017141620 9 231 4.8 3.2 0.00 0.00 0.00 58 1021.4
20211017141119 9 231 4.8 3.2 0.00 0.00 0.00 58 1021.4
20211017140619 9 231 4.8 3.2 0.00 0.00 0.00 58 1021.4
20211017140120 9 231 4.8 3.2 0.00 0.00 0.00 58 1021.4
20211017135620 9 231 4.8 3.2 0.00 0.00 0.00 58 1021.4
20211017135120 9 231 4.8 3.2 0.00 0.00 0.00 58 1021.4
20211017134620 9 231 4.8 3.2 0.00 0.00 0.00 58 1021.4
20211017134119 9 231 4.8 3.2 0.00 0.00 0.00 58 1021.4
20211017133620 9 231 4.8 3.2 0.00 0.00 0.00 58 1021.4
20211017133119 9 231 4.8 3.2 0.00 0.00 0.00 58 1021.4
20211017132619 9 231 4.8 3.2 0.00 0.00 0.00 58 1021.4
20211017132120 9 231 4.8 3.2 0.00 0.00 0.00 58 1021.4
20211017131619 9 231 4.8 3.2 0.00 0.00 0.00 58 1021.4
20211017131119 9 231 4.8 3.2 0.00 0.00 0.00 58 1021.4
20211017130620 9 231 4.8 3.2 0.00 0.00 0.00 58 1021.4
20211017130119 9 231 4.8 3.2 0.00 0.00 0.00 58 1021.4
20211017125620 9 231 4.8 3.2 0.00 0.00 0.00 58 1021.4
20211017125119 9 231 4.8 3.2 0.00 0.00 0.00 58 1021.4
20211017124619 9 231 4.8 3.2 0.00 0.00 0.00 58 1021.4
20211017124119 9 231 4.8 3.2 0.00 0.00 0.00 58 1021.4
20211017123620 9 231 4.8 3.2 0.00 0.00 0.00 58 1021.4
20211017123119 9 231 4.8 3.2 0.00 0.00 0.00 58 1021.4
20211017122619 9 231 4.8 3.2 0.00 0.00 0.00 58 1021.4
20211017122119 9 231 4.8 3.2 0.00 0.00 0.00 58 1021.4
20211017121619 9 231 4.8 3.2 0.00 0.00 0.00 58 1021.4
20211017121120 9 231 4.8 3.2 0.00 0.00 0.00 58 1021.4
20211017120620 9 231 4.8 3.2 0.00 0.00 0.00 58 1021.4
20211017120119 9 231 4.8 3.2 0.00 0.00 0.00 58 1021.4
20211017115620 9 231 4.8 3.2 0.00 0.00 0.00 58 1021.4
20211017115120 9 231 4.8 3.2 0.00 0.00 0.00 58 1021.4
20211017114619 9 231 4.8 3.2 0.00 0.00 0.00 58 1021.4
20211017114119 9 231 4.8 3.2 0.00 0.00 0.00 58 1021.4
20211017113619 9 231 4.8 3.2 0.00 0.00 0.00 58 1021.4
20211017113119 9 231 4.8 3.2 0.00 0.00 0.00 58 1021.4
20211017112619 9 231 4.8 3.2 0.00 0.00 0.00 58 1021.4
20211017112119 9 231 4.8 3.2 0.00 0.00 0.00 58 1021.4
20211017111619 9 231 4.8 3.2 0.00 0.00 0.00 58 1021.4
20211017111119 9 231 4.8 3.2 0.00 0.00 0.00 58 1021.4
20211017110619 9 231 4.8 3.2 0.00 0.00 0.00 58 1021.4
20211017110120 9 231 4.8 3.2 0.00 0.00 0.00 58 1021.4
20211017105619 9 231 4.8 3.2 0.00 0.00 0.00 58 1021.4
20211017105119 9 231 4.8 3.2 0.00 0.00 0.00 58 1021.4
20211017104619 9 231 4.8 3.2 0.00 0.00 0.00 58 1021.4
20211017104120 9 231 4.8 3.2 0.00 0.00 0.00 58 1021.4
20211017103619 9 231 4.8 3.2 0.00 0.00 0.00 58 1021.4
20211017103119 9 231 4.8 3.2 0.00 0.00 0.00 58 1021.4
20211017102620 9 231 4.8 3.2 0.00 0.00 0.00 58 1021.4
20211017102119 9 231 4.8 3.2 0.00 0.00 0.00 58 1021.4
20211017101619 9 231 4.8 3.2 0.00 0.00 0.00 58 1021.4
20211017101119 9 231 4.8 3.2 0.00 0.00 0.00 58 1021.4
20211017100620 9 231 4.8 3.2 0.00 0.00 0.00 58 1021.4
20211017100119 9 231 4.8 3.2 0.00 0.00 0.00 58 1021.4
20211017095619 9 231 4.8 3.2 0.00 0.00 0.00 58 1021.4
20211017095119 9 231 4.8 3.2 0.00 0.00 0.00 58 1021.4
20211017094619 9 231 4.8 3.2 0.00 0.00 0.00 58 1021.4
20211017094119 9 231 4.8 3.2 0.00 0.00 0.00 58 1021.4
20211017093619 9 231 4.8 3.2 0.00 0.00 0.00 58 1021.4
20211017093119 9 231 4.8 3.2 0.00 0.00 0.00 58 1021.4
20211017092619 9 231 4.8 3.2 0.00 0.00 0.00 58 1021.4
20211017092120 9 231 4.8 3.2 0.00 0.00 0.00 58 1021.4
20211017091618 9 231 4.8 3.2 0.00 0.00 0.00 58 1021.4
20211017091119 9 231 4.8 3.2 0.00 0.00 0.00 58 1021.4
20211017090619 9 231 4.8 3.2 0.00 0.00 0.00 58 1021.4
20211017090119 9 231 4.8 3.2 0.00 0.00 0.00 58 1021.4
20211017085619 9 231 4.8 3.2 0.00 0.00 0.00 58 1021.4
20211017085119 9 231 4.8 3.2 0.00 0.00 0.00 58 1021.4
20211017084619 9 231 4.8 3.2 0.00 0.00 0.00 58 1021.4
20211017084118 9 231 4.8 3.2 0.00 0.00 0.00 58 1021.4
20211017083619 9 231 4.8 3.2 0.00 0.00 0.00 58 1021.4
20211017083119 9 231 4.8 3.2 0.00 0.00 0.00 58 1021.4
20211017082618 9 231 4.8 3.2 0.00 0.00 0.00 58 1021.4
20211017082119 9 231 4.8 3.2 0.00 0.00 0.00 58 1021.4
20211017081619 9 231 4.8 3.2 0.00 0.00 0.00 58 1021.4
20211017081119 9 231 4.8 3.2 0.00 0.00 0.00 58 1021.4
20211017080619 9 231 4.8 3.2 0.00 0.00 0.00 58 1021.4
20211017080119 9 231 4.8 3.2 0.00 0.00 0.00 58 1021.4
20211017075619 9 231 4.8 3.2 0.00 0.00 0.00 58 1021.4
20211017075118 9 231 4.8 3.2 0.00 0.00 0.00 58 1021.4
20211017074619 9 231 4.8 3.2 0.00 0.00 0.00 58 1021.4
20211017074119 9 231 4.8 3.2 0.00 0.00 0.00 58 1021.4
20211017073619 9 231 4.8 3.2 0.00 0.00 0.00 58 1021.4
20211017073119 9 231 4.8 3.2 0.00 0.00 0.00 58 1021.4
20211017072619 9 231 4.8 3.2 0.00 0.00 0.00 58 1021.4
20211017072119 9 231 4.8 3.2 0.00 0.00 0.00 58 1021.4
20211017071618 9 231 4.8 3.2 0.00 0.00 0.00 58 1021.4
20211017071119 9 231 4.8 3.2 0.00 0.00 0.00 58 1021.4
20211017070619 9 231 4.8 3.2 0.00 0.00 0.00 58 1021.4
20211017070118 9 231 4.8 3.2 0.00 0.00 0.00 58 1021.4
20211017065619 9 231 4.8 3.2 0.00 0.00 0.00 58 1021.4
20211017065119 9 231 4.8 3.2 0.00 0.00 0.00 58 1021.4
20211017064619 9 231 4.8 3.2 0.00 0.00 0.00 58 1021.4
20211017064118 9 231 4.8 3.2 0.00 0.00 0.00 58 1021.4
20211017063618 9 231 4.8 3.2 0.00 0.00 0.00 58 1021.4
20211017063119 9 231 4.8 3.2 0.00 0.00 0.00 58 1021.4
20211017062618 9 231 4.8 3.2 0.00 0.00 0.00 58 1021.4
20211017062119 9 231 4.8 3.2 0.00 0.00 0.00 58 1021.4
20211017061619 9 231 4.8 3.2 0.00 0.00 0.00 58 1021.4
20211017061119 9 231 4.8 3.2 0.00 0.00 0.00 58 1021.4
20211017060618 9 231 4.8 3.2 0.00 0.00 0.00 58 1021.4
20211017060119 9 231 4.8 3.2 0.00 0.00 0.00 58 1021.4
20211017055619 9 231 4.8 3.2 0.00 0.00 0.00 58 1021.4
20211017055118 9 231 4.8 3.2 0.00 0.00 0.00 58 1021.4
20211017054619 9 231 4.8 3.2 0.00 0.00 0.00 58 1021.4
20211017054119 9 231 4.8 3.2 0.00 0.00 0.00 58 1021.4
20211017053619 9 231 4.8 11.3 0.00 0.00 0.00 58 1021.4
20211017053119 10 270 1.6 3.2 0.00 0.00 0.00 57 1021.4
20211017052619 10 270 1.6 4.8 0.00 0.00 0.00 57 1021.4
20211017052118 10 238 4.8 8.0 0.00 0.00 0.00 57 1021.5
20211017051619 10 250 4.8 9.7 0.00 0.00 0.00 57 1021.4
20211017051118 10 247 3.2 4.8 0.00 0.00 0.00 57 1021.5
20211017050619 10 239 4.8 9.7 0.00 0.00 0.00 56 1021.5
20211017050118 10 226 3.2 4.8 0.00 0.00 0.00 57 1021.4
20211017045619 10 239 3.2 9.7 0.00 0.00 0.00 56 1021.5
20211017045118 10 226 3.2 9.7 0.00 0.00 0.00 56 1021.5
20211017044619 10 246 4.8 11.3 0.00 0.00 0.00 56 1021.4
20211017044118 10 243 4.8 8.0 0.00 0.00 0.00 56 1021.5
20211017043619 10 217 4.8 8.0 0.00 0.00 0.00 55 1021.6
20211017043118 10 266 3.2 9.7 0.00 0.00 0.00 56 1021.7
20211017042618 10 221 4.8 11.3 0.00 0.00 0.00 56 1021.7
20211017042119 10 241 4.8 12.9 0.00 0.00 0.00 56 1021.7
20211017041618 10 226 3.2 8.0 0.00 0.00 0.00 56 1021.7
20211017041119 10 236 3.2 9.7 0.00 0.00 0.00 56 1021.6
20211017040618 10 228 4.8 11.3 0.00 0.00 0.00 55 1021.6
20211017040119 10 221 4.8 16.1 0.00 0.00 0.00 56 1021.7
20211017035620 10 239 4.8 11.3 0.00 0.00 0.00 56 1021.6
20211017035119 10 225 4.8 9.7 0.00 0.00 0.00 56 1021.6
20211017034618 10 227 3.2 8.0 0.00 0.00 0.00 56 1021.6
20211017034119 10 227 4.8 12.9 0.00 0.00 0.00 56 1021.5
20211017033619 10 225 3.2 4.8 0.00 0.00 0.00 56 1021.5
20211017033119 10 218 4.8 9.7 0.00 0.00 0.00 55 1021.5
20211017032619 10 214 4.8 11.3 0.00 0.00 0.00 55 1021.5
20211017032118 10 218 3.2 9.7 0.00 0.00 0.00 55 1021.4
20211017031619 10 229 3.2 9.7 0.00 0.00 0.00 55 1021.4
20211017031118 10 224 3.2 11.3 0.00 0.00 0.00 55 1021.4
20211017030618 11 236 4.8 9.7 0.00 0.00 0.00 54 1021.4
20211017030118 11 219 4.8 12.9 0.00 0.00 0.00 54 1021.4
20211017025618 11 216 4.8 9.7 0.00 0.00 0.00 54 1021.3
20211017025119 11 227 4.8 11.3 0.00 0.00 0.00 54 1021.3
20211017024618 11 220 4.8 11.3 0.00 0.00 0.00 54 1021.4
20211017024119 11 217 3.2 9.7 0.00 0.00 0.00 54 1021.4
20211017023618 11 211 3.2 8.0 0.00 0.00 0.00 54 1021.4
20211017023119 11 218 4.8 12.9 0.00 0.00 0.00 53 1021.4
20211017022618 11 211 4.8 12.9 0.00 0.00 0.00 53 1021.3
20211017022119 11 210 4.8 8.0 0.00 0.00 0.00 53 1021.3
20211017021619 11 211 4.8 14.5 0.00 0.00 0.00 53 1021.3
20211017021118 11 205 4.8 9.7 0.00 0.00 0.00 53 1021.3
20211017020619 11 208 4.8 11.3 0.00 0.00 0.00 53 1021.3
20211017020118 11 207 4.8 12.9 0.00 0.00 0.00 53 1021.3
20211017015619 11 203 4.8 8.0 0.00 0.00 0.00 53 1021.2
20211017015118 11 210 4.8 9.7 0.00 0.00 0.00 53 1021.2
20211017014618 11 220 3.2 9.7 0.00 0.00 0.00 52 1021.2
20211017014118 11 207 3.2 4.8 0.00 0.00 0.00 53 1021.2
20211017013619 11 211 3.2 4.8 0.00 0.00 0.00 52 1021.2
20211017013119 11 205 4.8 8.0 0.00 0.00 0.00 52 1021.3
20211017012618 11 214 3.2 8.0 0.00 0.00 0.00 51 1021.3
20211017012118 11 207 3.2 4.8 0.00 0.00 0.00 52 1021.4
20211017011619 12 207 3.2 9.7 0.00 0.00 0.00 51 1021.4
20211017011118 12 221 3.2 8.0 0.00 0.00 0.00 51 1021.3
20211017010618 12 220 3.2 4.8 0.00 0.00 0.00 51 1021.3
20211017010118 12 204 3.2 4.8 0.00 0.00 0.00 51 1021.3
20211017005618 12 219 3.2 4.8 0.00 0.00 0.00 51 1021.3
20211017005118 12 197 3.2 4.8 0.00 0.00 0.00 51 1021.3
20211017004619 12 214 3.2 4.8 0.00 0.00 0.00 50 1021.2
20211017004118 12 201 3.2 4.8 0.00 0.00 0.00 50 1021.2
20211017003618 12 191 3.2 4.8 0.00 0.00 0.00 51 1021.2
20211017003118 12 197 3.2 4.8 0.00 0.00 0.00 50 1021.1
20211017002618 12 196 3.2 4.8 0.00 0.00 0.00 49 1021.1
20211017002118 12 202 1.6 4.8 0.00 0.00 0.00 49 1021.0
20211017001618 13 202 1.6 4.8 0.00 0.00 0.00 48 1021.0
20211017001118 13 204 3.2 4.8 0.00 0.00 0.00 47 1021.0
20211017000618 13 226 1.6 4.8 0.00 0.00 0.00 46 1021.0
20211017000118 13 217 1.6 4.8 0.00 0.00 0.00 45 1020.9
20211016235618 13 213 1.6 4.8 0.00 0.00 0.00 45 1020.9
20211016235118 14 205 1.6 3.2 0.00 0.00 0.00 44 1020.8
20211016234618 14 223 1.6 4.8 0.00 0.00 0.00 44 1020.9
20211016234117 14 225 1.6 3.2 0.00 0.00 0.00 43 1020.9
20211016233618 15 250 1.6 4.8 0.00 0.00 0.00 43 1020.8
20211016233118 15 225 1.6 4.8 0.00 0.00 0.00 42 1020.9
20211016232618 15 216 3.2 4.8 0.00 0.00 0.00 41 1020.9
20211016232118 15 286 3.2 4.8 0.00 0.00 0.00 41 1020.8
20211016231617 15 256 3.2 9.7 0.00 0.00 0.00 39 1020.8
20211016231118 15 258 4.8 11.3 0.00 0.00 0.00 39 1020.8
20211016230618 16 262 3.2 9.7 0.00 0.00 0.00 39 1020.9
20211016230118 16 256 4.8 9.7 0.00 0.00 0.00 39 1020.9
20211016225618 16 264 6.4 12.9 0.00 0.00 0.00 38 1020.9
20211016225118 16 270 3.2 9.7 0.00 0.00 0.00 39 1021.0
20211016224618 16 268 8.0 14.5 0.00 0.00 0.00 37 1021.0
20211016224119 16 262 8.0 14.5 0.00 0.00 0.00 37 1021.0
20211016223618 16 274 3.2 12.9 0.00 0.00 0.00 38 1021.0
20211016223118 17 266 8.0 12.9 0.00 0.00 0.00 36 1021.0
20211016222618 17 295 8.0 14.5 0.00 0.00 0.00 36 1021.1
20211016222118 17 264 11.3 20.9 0.00 0.00 0.00 35 1021.1
20211016221618 17 277 8.0 14.5 0.00 0.00 0.00 35 1021.1
20211016221118 17 301 8.0 16.1 0.00 0.00 0.00 34 1021.1
20211016220618 17 285 11.3 19.3 0.00 0.00 0.00 34 1021.1
20211016220118 17 287 9.7 19.3 0.00 0.00 0.00 34 1021.1
20211016215618 17 269 11.3 20.9 0.00 0.00 0.00 33 1021.1
20211016215118 17 256 8.0 16.1 0.00 0.00 0.00 32 1021.1
20211016214618 17 275 6.4 12.9 0.00 0.00 0.00 32 1021.1
20211016214118 17 271 9.7 20.9 0.00 0.00 0.00 32 1021.2
20211016213618 17 254 11.3 16.1 0.00 0.00 0.00 32 1021.1
20211016213118 17 257 8.0 14.5 0.00 0.00 0.00 32 1021.2
20211016212618 17 267 8.0 19.3 0.00 0.00 0.00 32 1021.2
20211016212118 17 277 11.3 24.1 0.00 0.00 0.00 31 1021.1
20211016211618 17 286 8.0 16.1 0.00 0.00 0.00 32 1021.2
20211016211118 17 274 8.0 19.3 0.00 0.00 0.00 32 1021.3
20211016210617 17 298 14.5 22.5 0.00 0.00 0.00 31 1021.3
20211016210118 17 303 11.3 22.5 0.00 0.00 0.00 32 1021.3
20211016205618 17 264 11.3 22.5 0.00 0.00 0.00 31 1021.3
20211016205118 17 265 8.0 14.5 0.00 0.00 0.00 34 1021.4
20211016204618 17 276 12.9 20.9 0.00 0.00 0.00 33 1021.4
20211016204118 17 276 4.8 24.1 0.00 0.00 0.00 33 1021.4
20211016203618 17 268 16.1 24.1 0.00 0.00 0.00 33 1021.4
20211016203118 17 277 8.0 19.3 0.00 0.00 0.00 34 1021.4
20211016202617 17 302 11.3 24.1 0.00 0.00 0.00 34 1021.4
20211016202118 17 296 9.7 24.1 0.00 0.00 0.00 35 1021.4
20211016201617 17 295 11.3 25.7 0.00 0.00 0.00 35 1021.3
20211016201118 17 256 12.9 24.1 0.00 0.00 0.00 35 1021.4
20211016200618 16 262 16.1 27.4 0.00 0.00 0.00 35 1021.3
20211016200118 16 294 11.3 27.4 0.00 0.00 0.00 34 1021.4
20211016195618 16 299 11.3 29.0 0.00 0.00 0.00 35 1021.5
20211016195118 16 269 16.1 24.1 0.00 0.00 0.00 35 1021.6
20211016194618 16 302 16.1 25.7 0.00 0.00 0.00 35 1021.6
20211016194117 16 280 11.3 22.5 0.00 0.00 0.00 35 1021.7
20211016193617 16 306 11.3 24.1 0.00 0.00 0.00 36 1021.6
20211016193117 16 274 14.5 24.1 0.00 0.00 0.00 36 1021.7
20211016192618 16 284 9.7 19.3 0.00 0.00 0.00 37 1021.7
20211016192118 16 274 9.7 16.1 0.00 0.00 0.00 39 1021.7
20211016191618 16 295 12.9 24.1 0.00 0.00 0.00 38 1021.7
20211016191118 16 280 12.9 24.1 0.00 0.00 0.00 38 1021.8
20211016190617 16 284 14.5 27.4 0.00 0.00 0.00 38 1021.9
20211016190118 16 302 9.7 20.9 0.00 0.00 0.00 38 1021.9
20211016185618 16 275 16.1 27.4 0.00 0.00 0.00 38 1022.0
20211016185118 16 269 11.3 22.5 0.00 0.00 0.00 38 1021.9
20211016184618 16 317 11.3 22.5 0.00 0.00 0.00 39 1022.1
20211016184117 16 281 11.3 25.7 0.00 0.00 0.00 39 1022.2
20211016183618 16 277 11.3 22.5 0.00 0.00 0.00 38 1022.2
20211016183117 16 265 14.5 27.4 0.00 0.00 0.00 37 1022.3
20211016182618 16 315 11.3 25.7 0.00 0.00 0.00 40 1022.3
20211016182118 16 279 11.3 22.5 0.00 0.00 0.00 39 1022.4
20211016181617 15 294 11.3 19.3 0.00 0.00 0.00 40 1022.4
20211016181118 15 283 14.5 24.1 0.00 0.00 0.00 40 1022.4
20211016180618 15 293 9.7 24.1 0.00 0.00 0.00 41 1022.4
20211016180117 15 300 11.3 19.3 0.00 0.00 0.00 40 1022.4
20211016175617 15 292 11.3 25.7 0.00 0.00 0.00 40 1022.5
20211016175117 15 290 14.5 27.4 0.00 0.00 0.00 40 1022.6
20211016174617 15 284 12.9 24.1 0.00 0.00 0.00 42 1022.6
20211016174118 14 282 14.5 25.7 0.00 0.00 0.00 42 1022.6
20211016173617 14 286 11.3 25.7 0.00 0.00 0.00 41 1022.7
20211016173117 14 276 11.3 24.1 0.00 0.00 0.00 41 1022.8
20211016172618 14 273 16.1 25.7 0.00 0.00 0.00 40 1022.8
20211016172117 13 284 11.3 19.3 0.00 0.00 0.00 43 1022.7
20211016171618 13 281 9.7 24.1 0.00 0.00 0.00 42 1022.9
20211016171117 13 285 19.3 29.0 0.00 0.00 0.00 43 1022.9
20211016170618 13 279 14.5 24.1 0.00 0.00 0.00 43 1022.9
20211016170117 13 295 9.7 20.9 0.00 0.00 0.00 46 1022.9
20211016165618 13 295 11.3 24.1 0.00 0.00 0.00 45 1022.9
20211016165117 12 305 14.5 29.0 0.00 0.00 0.00 45 1022.9
20211016164618 12 262 14.5 25.7 0.00 0.00 0.00 45 1022.9
20211016164118 12 299 14.5 27.4 0.00 0.00 0.00 48 1022.9
20211016163617 12 301 16.1 24.1 0.00 0.00 0.00 47 1022.9